FW0714 Weather Reports


time (UTC)temp
C
wind
direction
speed
KPH
gust
KPH
rain 1hr
cm
rain 24hr
cm
rain mn
cm
humidity
%
barometer
mb
20260506131710 11 72 6.4 17.7 0.00 0.10 0.10 72 1009.4
20260506131205 11 55 6.4 19.3 0.00 0.10 0.10 71 1009.4
20260506130713 11 17 8.0 19.3 0.00 0.10 0.10 71 1009.4
20260506130207 11 66 6.4 19.3 0.00 0.10 0.10 71 1009.5
20260506125713 11 93 9.7 19.3 0.00 0.10 0.10 71 1009.5
20260506125212 10 61 9.7 19.3 0.00 0.10 0.10 71 1009.4
20260506124716 10 56 9.7 17.7 0.00 0.10 0.10 72 1009.4
20260506124206 10 90 6.4 22.5 0.00 0.10 0.10 74 1009.3
20260506123208 10 78 6.4 22.5 0.00 0.10 0.10 74 1009.4
20260506122716 10 85 9.7 20.9 0.00 0.10 0.10 73 1009.3
20260506122211 10 0 11.3 19.3 0.00 0.10 0.10 74 1009.3
20260506121206 10 39 8.0 20.9 0.00 0.10 0.10 76 1009.3
20260506120209 10 61 4.8 20.9 0.00 0.10 0.10 76 1009.3
20260506115219 10 58 8.0 17.7 0.00 0.10 0.10 76 1009.1
20260506114714 10 96 11.3 16.1 0.00 0.10 0.10 76 1009.0
20260506114212 10 59 6.4 16.1 0.00 0.10 0.10 77 1009.0
20260506113719 10 41 4.8 16.1 0.00 0.10 0.10 76 1009.0
20260506113211 10 55 8.0 16.1 0.00 0.10 0.10 76 1008.9
20260506112712 10 24 6.4 16.1 0.00 0.10 0.10 76 1008.9
20260506112208 10 39 6.4 14.5 0.00 0.10 0.10 76 1008.9
20260506111709 10 63 9.7 14.5 0.00 0.10 0.10 75 1008.9
20260506111215 10 85 8.0 14.5 0.00 0.10 0.10 75 1008.8
20260506110717 10 100 6.4 19.3 0.00 0.10 0.10 75 1008.8
20260506110207 10 47 8.0 22.5 0.00 0.10 0.10 74 1008.7
20260506105712 10 80 4.8 22.5 0.00 0.10 0.10 73 1008.7
20260506105219 10 0 8.0 22.5 0.00 0.10 0.10 74 1008.8
20260506104717 10 14 9.7 17.7 0.00 0.10 0.10 74 1008.8
20260506103714 10 103 6.4 9.7 0.00 0.10 0.10 76 1008.8
20260506103209 10 47 1.6 9.7 0.00 0.10 0.10 77 1008.7
20260506102711 10 51 3.2 11.3 0.00 0.10 0.10 77 1008.7
20260506101709 10 17 6.4 11.3 0.00 0.10 0.10 76 1008.6
20260506100710 10 58 6.4 14.5 0.00 0.10 0.10 76 1008.6
20260506100239 10 51 6.4 14.5 0.00 0.10 0.10 77 1008.6
20260506095714 10 14 4.8 14.5 0.00 0.10 0.10 78 1008.5
20260506095211 10 23 3.2 14.5 0.00 0.10 0.10 78 1008.5
20260506094707 10 72 3.2 14.5 0.00 0.10 0.10 77 1008.6
20260506094210 10 42 3.2 17.7 0.00 0.10 0.10 77 1008.5
20260506093217 10 38 8.0 17.7 0.00 0.10 0.10 76 1008.5
20260506092705 10 42 8.0 19.3 0.00 0.10 0.10 75 1008.4
20260506092207 10 45 9.7 19.3 0.00 0.10 0.10 76 1008.4
20260506091709 10 79 4.8 19.3 0.00 0.10 0.10 76 1008.4
20260506091219 10 68 6.4 17.7 0.00 0.10 0.10 77 1008.3
20260506090707 10 62 4.8 17.7 0.00 0.10 0.10 76 1008.3
20260506090215 10 80 6.4 17.7 0.00 0.10 0.10 77 1008.3
20260506085709 10 71 6.4 14.5 0.00 0.10 0.10 78 1008.2
20260506084710 10 79 6.4 16.1 0.00 0.10 0.10 79 1008.2
20260506084217 10 80 6.4 16.1 0.00 0.10 0.10 80 1008.2
20260506082707 10 355 3.2 17.7 0.00 0.10 0.10 80 1008.1
20260506081208 10 79 4.8 14.5 0.00 0.10 0.10 82 1007.9
20260506080722 10 37 6.4 19.3 0.00 0.10 0.10 82 1007.9
20260506080206 10 69 4.8 19.3 0.00 0.10 0.10 83 1007.9
20260506073209 9 58 6.4 11.3 0.00 0.10 0.10 84 1007.8
20260506072714 9 48 4.8 14.5 0.00 0.10 0.10 84 1007.8
20260506072242 9 42 4.8 14.5 0.00 0.10 0.10 84 1007.9
20260506071706 9 80 3.2 14.5 0.00 0.10 0.10 85 1007.8
20260506071217 9 35 4.8 14.5 0.00 0.10 0.10 85 1007.8
20260506070717 9 55 8.0 14.5 0.00 0.10 0.10 85 1007.8
20260506070219 9 45 6.4 14.5 0.00 0.10 0.10 85 1007.7
20260506062214 8 24 1.6 8.0 0.05 0.10 0.10 87 1007.6
20260506061712 8 44 1.6 4.8 0.05 0.10 0.10 87 1007.6
20260506061208 8 48 0.0 8.0 0.05 0.10 0.10 87 1007.6
20260506060718 8 47 0.0 8.0 0.05 0.10 0.10 87 1007.5
20260506060218 8 69 1.6 8.0 0.05 0.10 0.10 87 1007.6
20260506050710 9 23 3.2 11.3 0.05 0.05 0.05 87 1007.6
20260506050207 9 42 6.4 11.3 0.05 0.05 0.05 87 1007.6
20260506044207 9 83 6.4 14.5 0.03 0.03 0.03 87 1007.5
20260506043705 9 72 4.8 9.7 0.03 0.03 0.03 87 1007.4
20260506043216 9 71 4.8 9.7 0.03 0.03 0.03 86 1007.4
20260506042713 9 47 3.2 9.7 0.00 0.00 0.00 86 1007.4
20260506041716 10 6 1.6 9.7 0.00 0.00 0.00 86 1007.3
20260506041217 10 65 3.2 9.7 0.00 0.00 0.00 86 1007.3
20260506040705 10 48 3.2 9.7 0.00 0.00 0.00 86 1007.4
20260506040207 10 0 4.8 14.5 0.00 0.00 0.00 86 1007.4
20260506035707 10 49 3.2 16.1 0.00 0.00 0.00 85 1007.3
20260506034711 10 48 3.2 16.1 0.00 0.00 0.00 85 1007.4
20260506034206 10 21 4.8 11.3 0.00 0.00 0.00 86 1007.4
20260506033714 10 0 4.8 11.3 0.00 0.00 0.00 86 1007.4
20260506032705 10 31 4.8 14.5 0.00 0.00 0.00 86 1007.5
20260506032217 10 37 3.2 14.5 0.00 0.00 0.00 86 1007.5
20260506031709 10 20 1.6 11.3 0.00 0.00 0.00 86 1007.6
20260506031218 10 10 3.2 16.1 0.00 0.00 0.00 86 1007.7
20260506030719 10 75 0.0 16.1 0.00 0.00 0.00 86 1007.6
20260506030208 10 23 3.2 16.1 0.00 0.00 0.00 86 1007.6
20260506025718 10 59 3.2 16.1 0.00 0.00 0.00 86 1007.6
20260506025206 10 27 4.8 16.1 0.00 0.00 0.00 86 1007.7
20260506024712 10 34 3.2 16.1 0.00 0.00 0.00 86 1007.7
20260506024218 10 58 4.8 14.5 0.00 0.00 0.00 86 1007.7
20260506023717 10 307 3.2 14.5 0.00 0.00 0.00 86 1007.7
20260506023215 10 21 3.2 14.5 0.00 0.00 0.00 86 1007.7
20260506022716 10 25 3.2 11.3 0.00 0.00 0.00 86 1007.7
20260506022218 10 1 4.8 14.5 0.00 0.00 0.00 86 1007.8
20260506021706 10 51 3.2 14.5 0.00 0.00 0.00 86 1007.8
20260506021217 10 3 1.6 14.5 0.00 0.00 0.00 86 1007.9
20260506020712 10 41 4.8 9.7 0.00 0.00 0.00 86 1008.0
20260506020215 10 11 4.8 9.7 0.00 0.00 0.00 85 1008.0
20260506015716 10 79 3.2 14.5 0.00 0.00 0.00 85 1008.0
20260506015207 10 21 3.2 14.5 0.00 0.00 0.00 85 1008.1
20260506014707 10 13 3.2 14.5 0.00 0.00 0.00 85 1008.1
20260506014220 10 0 3.2 9.7 0.00 0.00 0.00 85 1008.1
20260506013710 10 51 1.6 11.3 0.00 0.00 0.00 85 1008.2
20260506012217 10 38 4.8 11.3 0.00 0.00 0.00 84 1008.3
20260506011712 10 7 1.6 11.3 0.00 0.00 0.00 84 1008.3
20260506010209 10 31 3.2 17.7 0.00 0.00 0.00 84 1008.3
20260506005709 10 51 1.6 17.7 0.00 0.00 0.00 84 1008.3
20260506005207 10 48 4.8 11.3 0.00 0.00 0.00 84 1008.3
20260506004715 10 0 3.2 11.3 0.00 0.00 0.00 84 1008.4
20260506004206 10 65 1.6 11.3 0.00 0.00 0.00 84 1008.4
20260506003217 10 97 4.8 9.7 0.00 0.00 0.00 84 1008.5
20260506002720 10 66 4.8 14.5 0.00 0.00 0.00 84 1008.6
20260506002219 10 41 3.2 14.5 0.00 0.00 0.00 84 1008.6
20260506001715 10 49 3.2 14.5 0.00 0.00 0.00 84 1008.6
20260506001217 10 42 1.6 8.0 0.00 0.00 0.00 83 1008.6
20260506000710 10 54 3.2 8.0 0.00 0.00 0.00 83 1008.7
20260506000219 10 44 1.6 11.3 0.00 0.00 0.00 83 1008.8
20260505235708 10 56 1.6 11.3 0.00 0.00 0.00 83 1008.9
20260505235208 10 52 4.8 11.3 0.00 0.00 0.00 83 1008.9
20260505234707 10 16 3.2 11.3 0.00 0.00 0.00 83 1009.0
20260505234209 10 357 1.6 11.3 0.00 0.00 0.00 83 1009.1
20260505233711 10 68 3.2 11.3 0.00 0.00 0.00 82 1009.1
20260505233211 10 10 4.8 9.7 0.00 0.00 0.00 82 1009.1
20260505232712 10 314 3.2 9.7 0.00 0.00 0.00 82 1009.1
20260505231716 10 35 3.2 11.3 0.00 0.00 0.00 82 1009.1
20260505231217 10 0 4.8 16.1 0.00 0.00 0.00 81 1009.1
20260505230712 10 51 3.2 16.1 0.00 0.00 0.00 81 1009.1
20260505230218 10 55 4.8 16.1 0.00 0.00 0.00 81 1009.1
20260505225710 10 73 6.4 16.1 0.00 0.00 0.00 81 1009.2
20260505225215 10 16 4.8 16.1 0.00 0.00 0.00 81 1009.1
20260505224710 10 0 4.8 11.3 0.00 0.00 0.00 81 1009.3
20260505224211 10 0 6.4 9.7 0.00 0.00 0.00 81 1009.3
20260505223714 10 48 3.2 11.3 0.00 0.00 0.00 81 1009.3
20260505223212 10 65 3.2 14.5 0.00 0.00 0.00 81 1009.4
20260505222709 10 21 3.2 14.5 0.00 0.00 0.00 81 1009.3
20260505222217 10 63 4.8 14.5 0.00 0.00 0.00 81 1009.4
20260505221706 10 0 4.8 16.1 0.00 0.00 0.00 82 1009.4
20260505221211 10 39 3.2 16.1 0.00 0.00 0.00 82 1009.4
20260505220716 10 38 6.4 16.1 0.00 0.00 0.00 82 1009.3
20260505220209 10 35 4.8 17.7 0.00 0.00 0.00 82 1009.3
20260505215718 10 55 4.8 17.7 0.00 0.00 0.00 82 1009.4
20260505215209 10 44 3.2 14.5 0.00 0.00 0.00 82 1009.4
20260505214710 10 23 3.2 14.5 0.00 0.00 0.00 82 1009.4
20260505214213 10 82 3.2 14.5 0.00 0.00 0.00 82 1009.5
20260505213718 10 38 3.2 14.5 0.00 0.00 0.00 82 1009.6
20260505213215 10 23 4.8 11.3 0.00 0.00 0.00 82 1009.6
20260505212705 10 37 4.8 11.3 0.00 0.00 0.00 82 1009.6
20260505212212 10 303 3.2 11.3 0.00 0.00 0.00 82 1009.7
20260505211715 10 51 3.2 16.1 0.00 0.00 0.00 82 1009.7
20260505210713 10 93 3.2 14.5 0.00 0.00 0.00 82 1009.7
20260505210209 10 11 3.2 16.1 0.00 0.00 0.00 82 1009.7
20260505205718 10 0 3.2 16.1 0.00 0.00 0.00 82 1009.8
20260505205209 10 3 3.2 16.1 0.00 0.00 0.00 83 1009.8
20260505204708 10 10 4.8 11.3 0.00 0.00 0.00 83 1009.8
20260505204210 10 11 3.2 11.3 0.00 0.00 0.00 83 1009.8
20260505203711 10 30 3.2 11.3 0.00 0.00 0.00 83 1009.9
20260505203211 10 72 4.8 11.3 0.00 0.00 0.00 83 1009.9
20260505202711 10 54 3.2 19.3 0.00 0.00 0.00 83 1009.9
20260505202205 10 51 4.8 19.3 0.00 0.00 0.00 83 1009.9
20260505201709 10 54 4.8 19.3 0.00 0.00 0.00 83 1009.8
20260505201217 10 0 6.4 11.3 0.00 0.00 0.00 82 1009.9
20260505200711 10 13 4.8 11.3 0.00 0.00 0.00 82 1009.8
20260505200217 10 79 3.2 11.3 0.00 0.00 0.00 82 1009.9
20260505195719 10 8 3.2 16.1 0.00 0.00 0.00 82 1009.9
20260505195206 10 131 3.2 20.9 0.00 0.00 0.00 82 1009.9
20260505194720 10 13 4.8 20.9 0.00 0.00 0.00 82 1009.9
20260505192711 10 21 3.2 14.5 0.00 0.00 0.00 82 1009.8
20260505191720 10 62 4.8 20.9 0.00 0.00 0.00 81 1009.7
20260505191218 10 48 3.2 20.9 0.00 0.00 0.00 82 1009.7
20260505190218 11 18 4.8 17.7 0.00 0.00 0.00 82 1009.5
20260505185715 11 16 4.8 14.5 0.00 0.00 0.00 82 1009.5
20260505185210 11 3 4.8 14.5 0.00 0.00 0.00 81 1009.5
20260505184712 11 55 6.4 16.1 0.00 0.00 0.00 81 1009.5
20260505184217 11 0 4.8 17.7 0.00 0.00 0.00 81 1009.4
20260505183711 11 61 4.8 17.7 0.00 0.00 0.00 81 1009.4
20260505183219 11 252 4.8 17.7 0.00 0.00 0.00 81 1009.4
20260505182705 11 0 6.4 11.3 0.00 0.00 0.00 81 1009.4
20260505182220 11 4 4.8 16.1 0.00 0.00 0.00 80 1009.4
20260505181719 11 25 1.6 16.1 0.00 0.00 0.00 80 1009.5
20260505180209 11 48 3.2 14.5 0.00 0.00 0.00 79 1009.4
20260505175705 11 54 4.8 14.5 0.00 0.00 0.00 79 1009.5
20260505175206 12 42 1.6 14.5 0.00 0.00 0.00 79 1009.4
20260505174705 12 10 4.8 14.5 0.00 0.00 0.00 79 1009.4
20260505174209 12 28 3.2 11.3 0.00 0.00 0.00 79 1009.4
20260505173709 12 321 3.2 14.5 0.00 0.00 0.00 78 1009.4
20260505173206 12 75 3.2 14.5 0.00 0.00 0.00 78 1009.4
20260505172713 12 28 1.6 14.5 0.00 0.00 0.00 77 1009.5
20260505172218 12 51 3.2 11.3 0.00 0.00 0.00 77 1009.4
20260505171717 12 45 4.8 9.7 0.00 0.00 0.00 76 1009.5
20260505171209 12 0 1.6 11.3 0.00 0.00 0.00 76 1009.5
20260505170714 12 14 3.2 11.3 0.00 0.00 0.00 75 1009.5
20260505170217 12 227 3.2 11.3 0.00 0.00 0.00 75 1009.6
20260505165707 12 298 3.2 11.3 0.00 0.00 0.00 75 1009.6
20260505164714 12 39 4.8 11.3 0.00 0.00 0.00 75 1009.6
20260505164218 12 289 3.2 16.1 0.00 0.00 0.00 75 1009.6
20260505162220 12 324 3.2 17.7 0.00 0.00 0.00 76 1009.5
20260505161714 12 52 4.8 17.7 0.00 0.00 0.00 75 1009.6
20260505161216 12 44 4.8 17.7 0.00 0.00 0.00 76 1009.6
20260505160711 12 358 3.2 14.5 0.00 0.00 0.00 76 1009.6
20260505160209 12 47 3.2 14.5 0.00 0.00 0.00 76 1009.6
20260505153207 12 63 3.2 11.3 0.00 0.00 0.00 78 1009.8
20260505152732 12 276 3.2 11.3 0.00 0.00 0.00 78 1009.8
20260505151724 12 49 3.2 14.5 0.00 0.00 0.00 77 1009.8
20260505151212 12 55 8.0 14.5 0.00 0.00 0.00 77 1009.9
20260505150710 12 52 3.2 14.5 0.00 0.00 0.00 78 1009.9
20260505150210 12 13 6.4 14.5 0.00 0.00 0.00 79 1009.8
20260505140217 12 62 3.2 8.0 0.00 0.00 0.00 80 1010.2